Regional Weather Roundup
Issued by NWS

Home | Current Version | Previous Version | Graphics & Text | Print | Product List | Glossary On
Versions: 1 2 3 4 5 6 7 8 9 10 11 12 13 14 15 16 17 18 19 20 21 22 23 24 25 26 27 28 29 30 31 32 33 34 35 36 37 38 39 40 41 42 43 44 45 46 47 48 49 50
000
ASUS43 KMKX 301800
RWRWI

WISCONSIN REGIONAL WEATHER ROUNDUP
NATIONAL WEATHER SERVICE MILWAUKEE/SULLIVAN WI
100 PM CDT SAT AUG 30 2014

NOTE: "FAIR" INDICATES FEW OR NO CLOUDS BELOW 12,000 FEET WITH NO
SIGNIFICANT WEATHER AND/OR OBSTRUCTIONS TO VISIBILITY.

WIZ001-002-006>008-014>016-023>028-301900-
NORTHWEST WISCONSIN

CITY           SKY/WX    TMP DP  RH WIND       PRES   REMARKS
SUPERIOR ARPT  CLOUDY    65  61  88 E3        29.87R
ASHLAND        CLOUDY    64  59  83 NE10      29.87S
6HR MIN TEMP:  61; 6HR MAX TEMP:  64;

HAYWARD        CLOUDY    64  60  87 N6        29.86S
6HR MIN TEMP:  61; 6HR MAX TEMP:  64; 6HR PCP:  0.01;

SIREN          CLOUDY    66  60  78 NE7       29.87R
RICE LAKE      CLOUDY    65  61  87 N9        29.86S
6HR MIN TEMP:  64; 6HR MAX TEMP:  65;

LADYSMITH      CLOUDY    64  61  90 N8        29.85S
EAU CLAIRE     CLOUDY    69  65  86 NW9       29.82R
6HR MIN TEMP:  66; 6HR MAX TEMP:  74; 6HR PCP:  0.03;

MENOMONIE      CLOUDY    70  64  81 NW7       29.83S
NEW RICHMOND   CLOUDY    66  62  88 N8        29.86S
OSCEOLA        CLOUDY    65  64  94 N6        29.89S
$$

WIZ003>005-009-010-017-018-301900-
NORTH CENTRAL WISCONSIN

CITY           SKY/WX    TMP DP  RH WIND       PRES   REMARKS
WOODRUFF       CLOUDY    62  60  93 N12G17    29.82S
RHINELANDER    CLOUDY    64  62  93 N7        29.81R
6HR MIN TEMP:  63; 6HR MAX TEMP:  68; 6HR PCP:  0.06;

EAGLE RIVER    LGT RAIN  63  63 100 N9        29.81R
LAND O LAKES   RAIN      61  60  97 N10       29.83R
PHILLIPS       CLOUDY    62  60  93 N6        29.82S
TOMAHAWK       CLOUDY    65  62  87 N8        29.81S
MEDFORD        CLOUDY    69  64  85 NW9       29.81S
MERRILL        CLOUDY    71  65  83 NW7       29.79S
$$

WIZ029-030-035-036-043>047-301900-
CENTRAL WISCONSIN

CITY           SKY/WX    TMP DP  RH WIND       PRES   REMARKS
WAUSAU         CLOUDY    72  66  81 NW8       29.77S
6HR MIN TEMP:  65; 6HR MAX TEMP:  72; 6HR PCP:  0.08;

MOSINEE        RAIN      70  68  94 NW5       29.80S
MARSHFIELD     CLOUDY    73  66  78 NW12      29.80R
6HR MIN TEMP:  65; 6HR MAX TEMP:  74;

STEVENS POINT  CLOUDY    67  65  93 SW3       29.79R
WAUPACA        CLOUDY    76  66  70 W5        29.78S
WAUTOMA        NOT AVBL
WISC RAPIDS    CLOUDY    73  68  84 W9        29.80S
6HR MIN TEMP:  66; 6HR MAX TEMP:  74; 6HR PCP:  0.13;

CAMP DOUGLAS   NOT AVBL
$$

WIZ011>013-019>022-031-037>040-048>050-301900-
NORTHEAST WISCONSIN

CITY           SKY/WX    TMP DP  RH WIND       PRES   REMARKS
ANTIGO         PTSUNNY   71  64  79 NW3       29.79S
STURGEON BAY   CLOUDY    73  68  83 SW9       29.73S
6HR MIN TEMP:  66; 6HR MAX TEMP:  75;

GREEN BAY      CLOUDY    75  69  81 NW10      29.75R
6HR MIN TEMP:  68; 6HR MAX TEMP:  75; 6HR PCP: TRACE;

MANITOWOC      NOT AVBL
APPLETON       PTSUNNY   73  64  73 NW13      29.77S
CLINTONVILLE   CLOUDY    73  66  78 NW9       29.76S
OSHKOSH        PTSUNNY   74  67  78 W3        29.76S
6HR MIN TEMP:  70; 6HR MAX TEMP:  75; 6HR PCP:  0.05;

$$

WIZ032>034-041-042-053>061-301900-
SOUTHWEST WISCONSIN

CITY           SKY/WX    TMP DP  RH WIND       PRES   REMARKS
LA CROSSE      PTSUNNY   77  66  68 NW9       29.81R
6HR MIN TEMP:  69; 6HR MAX TEMP:  79; 6HR PCP:  0.01;

SPARTA         CLOUDY    74  65  72 NW5       29.82S
VIROQUA        MOCLDY    73  69  86 W6        29.83S
BOSCOBEL       CLOUDY    78  67  68 VRB6      29.82S HX  80
6HR MIN TEMP:  70; 6HR MAX TEMP:  78; 6HR PCP:  0.05;

PRAIRIE DU CHI NOT AVBL
PLATTEVILLE    CLOUDY    74  68  82 W12G20    29.86R
$$

WIZ056-057-062-063-064-067-068-301900-
SOUTH CENTRAL WISCONSIN

CITY           SKY/WX    TMP DP  RH WIND       PRES   REMARKS
BARABOO/DELLS  LGT RAIN  70  65  86 NW3       29.80S
LONE ROCK      LGT RAIN  78  68  71 W9        29.80S HX  80
WATERTOWN      CLOUDY    74  67  78 SW15      29.79S
MADISON        PTSUNNY   75  68  78 SW6       29.80S
6HR MIN TEMP:  69; 6HR MAX TEMP:  76; 6HR PCP:  0.11;

MIDDLETON      CLOUDY    77  70  78 W12       29.80F
MONROE         CLOUDY    72  66  83 SW15G21   29.83S
JANESVILLE     CLOUDY    77  64  65 SW13G21   29.82R
$$

WIZ051-052-058>065-066-070>072-301900-
SOUTHEAST WISCONSIN

CITY           SKY/WX    TMP DP  RH WIND       PRES   REMARKS
MILWAUKEE      PTSUNNY   75  67  76 SW16G28   29.81R
6HR MIN TEMP:  70; 6HR MAX TEMP:  78; 6HR PCP:  0.54;

WAUKESHA       CLOUDY    70  66  88 SW12      29.81S
MILWAUKEE/TIMM NOT AVBL
RACINE         CLOUDY    77  66  68 SW20G28   29.82R
6HR MIN TEMP:  72; 6HR MAX TEMP:  81; 6HR PCP: TRACE;

BURLINGTON     PTSUNNY   74  67  79 SW22G28   29.82R
KENOSHA        CLOUDY    75  66  73 W21G29    29.82R
6HR MIN TEMP:  71; 6HR MAX TEMP:  79;

FOND DU LAC    LGT RAIN  71  68  90 SW9       29.78S
6HR MIN TEMP:  70; 6HR MAX TEMP:  75; 6HR PCP:  0.27;

SHEBOYGAN      LGT RAIN  74  66  76 SW15      29.77S
6HR MIN TEMP:  70; 6HR MAX TEMP:  80; 6HR PCP: TRACE;

WEST BEND      CLOUDY    75  63  64 S14       29.78F
JUNEAU         CLOUDY    69  67  94 S10       29.80F
$$

LSZ147-162-301900-
LAKE SUPERIOR

STATION/POSITION TIME  TEMP    WIND        PRES    WAVE
                       AIR SEA DIR/SP/G            HT/PER
                 (UTC) (F)     (DEG/KT/KT) (MB)    (FT/S)
W MID LAKE BUOY  1650   59 57  350/  8/  8 1010.7R   1
DEVILS ISLAND    1700   61      CALM  /  1 1011.3R
PORT WING        1740   65      10/  3/  4 1011.5S
SAXON HARBOR     1700   62      40/  7/ 11 1011.5R
$$

LMZ867-665-643>646-301900-
LAKE MICHIGAN

STATION/POSITION TIME  TEMP    WIND        PRES    WAVE
                       AIR SEA DIR/SP/G            HT/PER
                 (UTC) (F)     (DEG/KT/KT) (MB)    (FT/S)
N MID LAKE BUOY  1650   67 65  200/ 16/ 19 1006.8F   4/ 6
NORTHPORT PIER   1700   70     190/  5/ 14 1006.8F
SISTER BAY       1541   76     250/ 13/ 14   N/A
KEWAUNEE LAKESHO 1700   63     180/ 11/ 14 1006.4F
SHEBOYGAN LAKESH 1700   70 59  190/ 11/ 13 1007.9S
ATWATER BUOY     1700   67     180/ 16/ 19 1010.0F
MILWAUKEE LAKESH 1700   71     220/ 14/ 17   N/A
S MID LAKE BUOY  1650   72 69  190/ 16/ 19 1009.9F   3/ 4
KENOSHA   LAKESH 1700   79     210/ 15/ 25 1009.1F
$$

TC  - TEMPERATURE IN CELSIUS
VSB - VISIBILITY IN STATUTE MILES
WCI - WIND CHILL INDEX
HX  - HEAT INDEX



USA.gov is the U.S. government's official web portal to all federal, state and local government web resources and services.